Wetbulb
32.31 32.01 31.36 32.32 33.12 33.76 33.61 32.84 30.08 25.50 26.26 31.58 31.85 36.53 37.04 38.59 38.18 38.57 39.21 38.93 37.55 37.99 38.04 39.33 40.71 41.35 41.50 43.72 46.33 48.40 50.38 59.30 58.49 61.93 63.07 63.31 63.45 63.75
32.04 31.68 30.94 32.19 32.77 33.33 33.92 32.95 32.24 29.92 26.38 30.73 32.20 34.37 35.76 37.21 38.30 38.12 39.33 38.00 38.38 38.09 38.31 38.79 40.46 40.54 41.01 43.84 45.08 46.45 48.22 55.68 57.46 61.03 61.76 61.91 62.57 62.87
32.71 31.40 30.74 32.36 32.72 33.32 33.42 32.90 32.16 31.98 28.41 30.22 32.49 35.60 33.97 34.39 36.91 39.37 39.75 40.55 41.06 38.97 37.90 38.56 39.62 40.44 41.72 42.73 43.58 44.39 45.96 53.23 54.65 59.70 60.23 60.82 61.78 62.28
31.33 31.47 30.80 31.78 32.20 32.85 32.99 32.93 32.67 32.45 30.67 28.91 30.66 32.07 32.39 33.68 35.69 36.99 37.00 39.64 40.29 40.12 38.45 39.57 40.67 40.53 41.64 42.09 42.85 43.59 44.47 50.39 51.10 56.68 57.96 58.94 60.07 60.93
31.98 31.49 31.15 31.30 31.33 32.38 33.08 32.83 33.08 32.58 32.56 31.37 29.75 31.47 32.54 33.33 33.75 36.44 36.78 39.09 39.63 38.85 39.21 40.89 40.32 41.05 41.25 41.84 42.94 43.33 44.05 48.02 47.82 53.15 54.04 54.64 56.10 57.48
32.25 31.88 31.60 31.49 31.46 31.39 31.15 31.92 33.04 32.62 32.75 31.23 30.13 29.84 31.82 32.84 33.48 32.21 33.92 37.09 35.85 37.82 39.25 39.65 39.87 40.38 41.06 41.62 42.51 43.27 45.97 50.21 47.47 47.67 50.03 49.12 50.03 52.49
31.25 31.40 32.42 31.80 30.96 31.46 31.76 31.53 31.82 31.58 31.75 32.05 29.73 31.26 30.48 30.46 30.56 31.64 31.02 34.02 37.45 36.78 37.48 40.26 41.62 42.16 41.91 41.52 42.55 42.98 47.85 48.40 46.57 47.29 48.03 49.30 48.94 50.39
30.25 30.90 31.68 31.12 31.82 30.89 31.89 32.37 32.87 31.05 30.32 30.53 29.73 30.02 29.94 30.61 31.50 31.21 31.57 32.80 32.94 38.54 36.25 38.62 41.00 39.35 39.05 40.63 41.63 42.42 46.38 45.82 46.19 48.03 48.94 49.30 49.30 48.40
31.07 30.79 30.05 30.51 31.51 31.78 31.50 31.96 32.41 32.11 30.50 31.52 29.94 30.01 30.10 32.41 32.54 31.10 31.92 32.53 33.87 37.33 35.16 36.25 39.96 37.52 39.81 41.24 41.49 42.08 43.43 44.57 45.31 47.13 48.40 48.03 47.31 46.77
31.84 31.11 30.28 30.19 31.22 30.63 31.11 31.54 32.89 33.40 33.91 32.88 31.97 32.25 33.29 34.78 34.71 34.07 33.92 33.85 35.87 36.77 36.79 35.34 37.93 36.07 39.71 40.58 41.29 42.03 42.05 43.04 44.72 45.86 46.95 47.13 46.77 46.04
31.26 31.33 31.09 30.40 29.68 30.42 29.87 31.17 32.08 34.15 35.02 33.27 32.76 33.00 32.91 32.93 33.32 34.18 32.97 32.62 34.77 36.39 36.79 36.43 35.71 36.25 37.14 38.41 42.01 41.07 40.81 41.24 42.71 45.13 45.31 46.40 46.58 45.50
29.67 30.27 29.41 28.85 28.73 29.47 29.78 31.17 30.04 32.32 33.56 34.39 34.59 32.96 33.69 34.84 33.21 34.53 35.16 33.19 35.26 36.42 36.98 36.25 36.43 36.07 34.98 37.13 40.83 45.18 44.04 40.32 40.83 43.30 44.57 45.86 45.86 59.19
27.52 28.04 29.04 28.11 29.12 29.76 29.79 30.56 30.17 32.17 33.85 35.15 34.01 33.51 34.10 35.43 35.84 36.82 37.24 34.81 33.80 35.96 36.30 37.08 37.52 36.98 36.25 34.98 38.02 43.22 44.13 44.04 44.71 45.09 43.68 45.48 48.22 55.60
26.80 28.27 28.75 28.66 29.39 29.95 29.94 29.96 31.29 33.08 36.24 36.03 34.40 33.64 32.84 33.74 34.96 35.34 36.46 36.49 36.52 36.24 37.79 39.89 39.48 39.13 38.43 36.61 36.25 39.93 41.11 44.72 45.68 46.57 49.13 44.52 45.31 46.40
28.22 28.45 28.36 28.55 29.55 30.28 30.13 30.64 31.70 34.70 34.98 34.60 34.44 33.53 34.80 34.59 34.56 34.72 35.55 36.26 36.43 37.47 38.64 40.93 41.49 40.51 40.82 36.98 36.25 37.88 38.21 38.13 41.37 43.87 47.49 50.67 52.10 54.53
27.97 30.31 29.25 28.90 29.73 30.23 31.41 32.18 33.21 33.97 33.15 34.08 34.62 35.71 36.16 35.99 35.24 34.97 34.80 35.09 34.62 35.02 37.81 38.26 40.45 40.86 37.62 38.38 39.86 37.46 38.84 37.16 38.31 40.39 41.21 41.04 42.78 45.61
28.60 29.75 29.88 29.53 29.67 29.78 30.32 31.50 32.56 33.16 33.33 33.98 34.80 34.98 35.13 35.20 34.75 35.63 35.05 34.65 33.47 33.35 33.45 34.72 36.41 35.11 33.84 36.57 35.61 36.65 37.54 37.72 39.40 39.40 40.73 37.91 36.64 37.94
27.28 26.76 27.40 27.77 26.97 28.10 28.90 30.11 32.00 31.90 33.35 33.64 34.00 34.27 34.26 34.62 34.26 34.71 34.43 33.85 32.57 33.15 33.02 34.10 35.30 36.81 37.35 35.39 33.89 35.66 35.62 35.31 36.47 37.90 39.68 38.56 36.00 36.16
26.39 26.44 26.22 26.68 27.24 27.69 28.63 30.18 30.85 32.04 32.78 33.95 33.53 33.35 33.71 34.80 34.60 34.42 33.32 33.14 31.70 32.18 32.49 33.69 36.39 38.63 36.27 32.26 32.63 32.49 33.76 34.15 34.95 33.00 34.16 33.88 32.87 32.17
25.95 25.41 25.60 26.51 26.80 27.36 28.72 30.14 31.17 32.26 32.63 32.99 32.99 33.17 33.35 33.70 33.15 33.64 34.60 33.27 32.00 31.25 30.99 32.69 34.08 38.54 36.14 31.00 29.44 29.98 32.49 33.36 33.47 32.55 31.95 33.26 33.27 32.42
24.38 24.74 25.89 26.28 26.72 27.37 29.07 30.20 30.99 31.18 31.70 32.08 32.63 32.63 32.44 34.04 32.99 34.08 33.98 32.16 31.92 30.93 29.51 30.14 31.87 32.85 35.76 35.33 29.76 28.72 29.71 31.62 32.51 34.61 35.05 34.33 32.72 32.81
24.02 24.92 25.72 26.28 26.49 27.07 28.74 29.64 30.43 30.88 31.09 32.08 32.08 32.26 32.26 33.53 32.44 32.44 33.35 33.50 32.25 31.61 31.04 32.85 34.11 34.67 35.21 32.13 28.89 29.26 29.85 31.17 31.50 30.80 31.13 32.73 35.48 33.17
23.95 24.48 25.47 26.31 26.53 27.39 27.69 28.92 29.65 30.13 30.34 30.84 31.66 31.42 31.69 32.08 33.35 33.89 33.70 33.69 33.92 32.60 31.62 31.30 31.40 31.81 31.31 31.36 30.31 29.25 29.23 29.19 29.72 27.63 28.01 30.49 31.20 31.10
MSLP
1024.60 1024.19 1023.84 1023.19 1022.67 1022.17 1021.69 1021.16 1020.43 1019.01 1018.10 1017.47 1016.87 1016.54 1016.22 1015.70 1015.40 1015.46 1014.95 1014.39 1014.75 1014.59 1014.39 1013.91 1013.49 1013.32 1012.87 1012.36 1011.51 1010.73 1010.53 1009.17 1010.59 1010.95 1012.05 1013.09 1014.09 1015.25
1024.12 1023.71 1023.44 1022.98 1022.35 1021.79 1021.27 1020.84 1020.26 1019.62 1018.44 1017.75 1017.07 1016.69 1016.21 1015.47 1014.93 1014.93 1014.34 1014.23 1013.89 1013.71 1013.75 1013.51 1013.19 1012.83 1012.62 1012.13 1011.39 1010.49 1010.98 1009.55 1010.20 1010.53 1011.87 1013.01 1014.20 1015.08
1023.47 1023.26 1022.93 1022.42 1021.89 1021.39 1020.91 1020.34 1019.85 1019.33 1018.47 1017.50 1017.06 1016.43 1016.04 1015.67 1014.80 1014.04 1013.71 1013.25 1012.69 1012.69 1013.02 1012.94 1012.86 1012.29 1012.39 1011.84 1011.07 1010.57 1010.22 1009.08 1010.26 1009.86 1011.65 1012.92 1014.06 1014.95
1022.86 1022.65 1022.36 1021.88 1021.39 1020.92 1020.41 1019.85 1019.27 1018.79 1018.40 1017.47 1016.87 1016.51 1016.10 1015.74 1014.81 1014.11 1013.75 1013.05 1012.59 1011.92 1012.34 1012.37 1012.30 1011.69 1011.17 1011.11 1010.57 1010.21 1010.54 1010.03 1009.89 1010.71 1011.37 1012.90 1013.95 1015.09
1022.52 1022.17 1021.80 1021.39 1020.91 1020.45 1020.04 1019.34 1018.81 1018.30 1017.81 1017.32 1016.71 1016.65 1016.10 1015.69 1015.02 1014.19 1013.65 1013.25 1012.66 1012.24 1012.26 1011.68 1011.74 1011.67 1011.52 1011.33 1010.23 1010.31 1009.73 1009.69 1011.19 1010.31 1011.38 1013.00 1013.93 1015.03
1022.23 1021.78 1021.34 1020.93 1020.61 1020.25 1019.61 1019.01 1018.34 1017.78 1017.24 1016.83 1016.45 1016.15 1015.54 1015.25 1014.89 1014.54 1013.85 1013.39 1013.10 1012.73 1012.32 1011.71 1011.45 1011.69 1011.45 1010.89 1010.02 1010.12 1009.74 1009.14 1009.27 1011.05 1011.49 1012.76 1013.75 1014.91
1021.82 1021.35 1020.89 1020.70 1020.40 1020.05 1019.55 1018.71 1018.03 1017.41 1016.77 1016.22 1016.05 1015.40 1015.08 1014.93 1014.73 1014.54 1014.27 1013.71 1012.81 1012.77 1012.08 1011.40 1010.77 1010.19 1009.99 1010.13 1009.89 1009.93 1008.65 1009.11 1010.40 1011.15 1011.98 1012.32 1013.62 1014.91
1021.37 1021.04 1020.65 1020.34 1019.87 1019.53 1018.94 1018.31 1017.86 1017.27 1016.64 1016.17 1015.79 1015.10 1014.87 1014.90 1014.87 1014.56 1014.08 1013.53 1012.92 1013.11 1012.55 1011.39 1010.68 1010.67 1010.43 1010.05 1010.15 1008.99 1008.79 1010.52 1009.99 1010.84 1011.68 1012.48 1013.71 1015.09
1021.28 1020.79 1020.46 1020.09 1019.62 1019.03 1018.23 1017.52 1016.91 1016.56 1016.45 1016.31 1015.67 1015.12 1014.82 1014.52 1014.54 1014.47 1014.22 1013.85 1013.41 1013.11 1012.75 1012.21 1011.94 1010.72 1010.73 1011.03 1009.85 1008.69 1008.81 1009.41 1010.18 1010.55 1011.63 1012.85 1013.98 1015.28
1021.17 1020.81 1020.47 1019.93 1019.47 1018.91 1017.88 1016.89 1016.17 1015.63 1015.48 1015.61 1015.44 1015.11 1014.75 1014.45 1014.41 1014.34 1014.15 1013.76 1013.36 1013.63 1013.37 1012.24 1011.72 1011.91 1011.26 1010.43 1010.49 1009.81 1010.12 1009.97 1010.34 1011.04 1011.89 1012.93 1014.23 1015.48
1021.16 1020.78 1020.45 1019.92 1019.45 1018.60 1017.64 1016.56 1015.81 1015.05 1014.77 1015.02 1015.05 1014.92 1014.84 1014.55 1014.68 1014.45 1013.91 1013.51 1012.74 1013.01 1013.15 1012.84 1012.53 1012.33 1011.89 1011.36 1010.79 1010.71 1009.74 1009.69 1011.23 1011.87 1012.37 1013.16 1014.47 1015.83
1021.33 1020.68 1020.25 1020.04 1019.25 1018.42 1017.53 1016.50 1015.65 1014.99 1014.69 1014.30 1014.38 1014.67 1014.61 1014.16 1014.28 1014.51 1013.82 1013.70 1013.29 1012.76 1013.12 1012.98 1012.63 1012.14 1011.57 1011.49 1010.78 1010.36 1011.65 1012.02 1012.58 1012.23 1012.87 1013.66 1014.79 1016.14
1021.76 1021.00 1020.42 1019.99 1019.13 1018.29 1017.55 1016.71 1016.01 1015.20 1014.46 1014.13 1014.09 1014.31 1014.39 1014.22 1013.83 1013.99 1013.95 1013.94 1013.60 1012.91 1013.15 1012.98 1012.33 1011.94 1011.88 1012.01 1012.37 1012.30 1011.75 1012.16 1011.73 1012.89 1013.60 1014.19 1015.03 1015.83
1022.45 1021.75 1020.99 1020.09 1019.12 1018.27 1017.46 1016.65 1015.69 1014.78 1014.18 1013.85 1013.95 1014.12 1014.23 1014.24 1014.16 1014.17 1014.15 1014.06 1013.62 1013.44 1013.24 1012.81 1012.27 1012.04 1012.16 1012.72 1012.99 1012.87 1012.81 1012.54 1013.17 1013.81 1014.10 1015.03 1015.63 1016.38
1023.09 1022.23 1021.25 1020.19 1019.19 1018.31 1017.59 1016.73 1015.95 1015.15 1014.47 1014.23 1014.10 1014.15 1014.34 1014.48 1014.37 1014.44 1014.25 1013.94 1014.00 1013.74 1013.53 1012.71 1012.46 1012.56 1012.69 1013.06 1013.45 1013.54 1013.45 1014.29 1014.28 1014.35 1014.12 1015.09 1015.93 1016.58
1023.30 1022.28 1021.50 1020.61 1019.65 1018.83 1017.86 1017.07 1016.53 1015.82 1015.10 1014.95 1014.63 1014.37 1014.45 1014.40 1014.32 1014.31 1014.41 1014.23 1014.03 1014.02 1013.73 1013.61 1013.28 1013.29 1013.63 1014.09 1014.01 1014.36 1014.33 1014.84 1015.32 1014.90 1015.40 1016.41 1017.17 1017.73
1023.84 1022.75 1021.70 1020.87 1020.08 1019.27 1018.53 1017.77 1017.17 1016.60 1015.77 1015.22 1015.09 1015.17 1014.76 1014.63 1014.67 1014.77 1014.82 1014.87 1014.73 1014.51 1014.68 1014.82 1014.77 1014.66 1014.97 1015.02 1015.13 1015.49 1015.31 1015.85 1016.63 1015.67 1015.98 1017.55 1018.77 1019.28
1024.31 1023.51 1022.77 1022.08 1021.43 1020.65 1019.73 1018.81 1017.91 1017.51 1017.05 1016.45 1016.01 1015.40 1015.27 1015.32 1015.43 1015.43 1015.27 1015.25 1015.42 1015.71 1015.43 1015.32 1015.33 1015.18 1015.59 1016.24 1016.79 1016.81 1016.53 1016.67 1016.92 1016.99 1017.23 1017.77 1019.71 1020.47
1025.05 1024.52 1023.95 1023.29 1022.63 1021.93 1021.09 1020.17 1019.30 1018.43 1017.68 1017.33 1016.94 1016.89 1016.53 1016.19 1015.97 1015.79 1015.71 1015.53 1015.72 1015.91 1016.08 1016.19 1015.56 1015.42 1015.87 1016.83 1018.28 1018.54 1017.95 1017.97 1017.58 1017.86 1018.26 1018.46 1020.54 1021.62
1026.13 1025.57 1024.98 1024.37 1023.70 1022.98 1022.31 1021.59 1020.88 1020.06 1019.07 1018.45 1018.21 1017.84 1017.48 1017.09 1016.80 1016.70 1016.84 1016.80 1016.71 1016.86 1017.05 1017.05 1016.83 1016.46 1016.54 1017.56 1018.87 1020.03 1018.87 1018.94 1019.39 1020.20 1020.76 1020.70 1021.19 1021.78
1027.29 1026.64 1026.02 1025.38 1024.73 1024.03 1023.29 1022.61 1022.08 1021.65 1021.03 1020.29 1019.53 1019.17 1018.67 1018.23 1018.06 1017.78 1017.79 1017.74 1017.79 1017.83 1017.63 1017.69 1018.13 1018.01 1017.91 1017.75 1018.89 1020.36 1020.75 1020.44 1020.35 1020.61 1020.91 1020.92 1021.19 1022.55
1028.59 1027.79 1027.07 1026.43 1025.75 1025.04 1024.19 1023.32 1022.52 1022.09 1021.85 1021.52 1020.99 1020.18 1019.85 1019.49 1019.23 1019.18 1019.04 1018.81 1018.79 1018.68 1018.53 1018.70 1018.62 1018.30 1018.22 1018.76 1020.24 1021.20 1021.60 1021.96 1021.91 1021.83 1021.77 1021.40 1021.75 1022.81
1029.68 1029.05 1028.18 1027.47 1026.81 1026.01 1025.21 1024.39 1023.53 1022.75 1022.03 1021.49 1021.04 1020.79 1020.55 1020.28 1020.12 1020.02 1019.80 1019.69 1019.47 1019.44 1019.69 1019.83 1019.81 1019.77 1019.95 1020.52 1021.35 1021.86 1022.39 1022.90 1023.16 1023.15 1023.89 1023.78 1022.84 1023.23
Wind_Speed
9 8 8 8 8 8 9 8 9 11 10 11 8 10 9 9 10 11 12 14 10 16 14 14 16 15 16 17 14 13 17 22 26 33 33 32 33 32
8 10 9 8 10 9 8 8 8 9 11 9 9 11 11 10 11 10 13 11 16 12 12 14 15 14 13 12 11 12 14 14 12 35 32 33 32 32
10 9 11 12 9 8 8 8 8 8 10 10 9 10 11 11 12 9 9 9 8 7 7 13 14 13 12 9 8 9 16 7 6 28 32 32 32 31
13 11 12 9 12 10 8 10 9 10 9 13 10 9 10 11 13 11 8 8 8 5 9 14 13 11 8 8 7 8 14 9 3 29 32 30 30 30
12 12 12 12 11 9 10 8 9 9 9 9 9 8 8 9 10 9 8 7 7 7 12 9 5 3 7 7 7 8 16 13 10 26 28 27 27 26
12 12 11 11 11 12 10 11 9 9 9 8 7 8 8 7 6 6 6 5 6 5 9 6 4 3 7 6 7 12 11 14 9 12 24 24 23 22
12 11 10 12 16 13 10 11 12 10 8 7 7 8 6 5 4 4 6 6 6 2 4 2 4 4 5 6 8 12 13 8 13 19 20 28 25 23
12 12 11 13 12 17 18 19 15 10 11 7 7 7 7 5 5 5 5 5 2 3 4 3 5 4 4 5 10 6 18 15 15 24 25 26 26 23
12 11 10 9 13 13 17 17 14 14 12 10 10 9 8 7 4 5 4 4 4 4 4 2 3 4 5 4 9 9 15 10 11 22 27 26 24 22
12 11 11 13 13 17 15 13 10 9 8 8 10 10 8 8 6 6 6 6 6 1 2 2 4 2 4 4 9 9 14 11 11 18 23 26 24 22
13 12 11 12 20 21 14 12 11 8 4 11 12 13 11 12 10 5 4 4 3 2 1 2 1 1 2 3 3 15 13 17 8 16 20 24 24 22
13 13 15 16 22 19 12 10 10 9 7 6 6 9 10 11 12 8 5 5 4 1 2 2 1 2 2 2 6 7 7 12 7 12 18 22 24 13
11 11 11 24 22 18 16 10 11 11 6 3 3 3 3 4 5 5 4 4 4 2 3 2 1 2 2 2 3 5 5 4 7 8 13 22 18 15
11 10 12 22 21 17 14 19 15 7 4 3 3 3 3 3 2 2 3 4 3 4 5 5 1 3 1 2 3 3 6 6 6 5 10 12 16 13
11 15 20 20 19 13 17 17 11 8 6 5 5 3 2 2 2 2 1 1 2 3 3 4 4 3 4 3 3 3 3 5 6 1 8 8 8 9
16 12 12 13 11 11 11 11 9 8 6 4 4 3 2 2 2 2 2 1 2 4 8 9 7 5 4 5 4 3 4 4 4 6 8 9 8 7
12 10 10 11 12 12 11 12 10 10 9 7 5 4 4 4 4 3 2 2 3 3 5 5 10 13 12 6 7 5 5 6 3 4 8 10 8 7
10 11 12 11 12 12 12 12 11 12 10 8 7 7 6 5 5 4 4 4 5 4 4 4 2 4 5 12 21 5 7 5 5 7 3 10 7 6
11 11 12 12 12 12 12 11 11 11 11 9 9 8 7 6 6 5 5 5 6 5 5 3 3 3 6 5 2 22 4 4 3 6 6 7 6 6
12 12 12 12 12 12 11 11 10 10 11 10 9 9 8 7 7 7 6 6 6 6 6 6 6 5 4 3 5 6 20 5 5 6 6 8 8 10
12 13 12 12 12 12 11 10 10 10 10 9 9 9 9 8 8 7 8 9 8 6 8 8 6 7 8 6 8 6 11 26 16 5 2 5 3 4
12 12 12 12 12 12 11 11 10 10 10 9 8 9 8 8 8 8 7 7 8 7 8 6 7 6 7 9 10 8 7 8 17 27 22 7 3 5
12 12 12 12 12 11 11 11 11 10 11 11 9 9 9 8 8 8 7 7 7 8 7 8 8 9 10 9 10 9 13 10 7 13 16 22 28 30
Wind_Direction
302 295 290 294 296 286 283 278 289 296 295 306 292 306 297 292 295 289 285 283 312 290 292 291 295 296 298 302 316 350 322 197 183 193 171 166 162 162
299 300 295 278 279 282 283 282 278 281 288 290 298 299 296 294 285 285 275 293 264 269 277 288 298 292 294 307 306 342 307 226 191 177 170 164 163 159
311 302 295 294 288 288 285 274 276 276 278 286 290 296 296 298 292 284 287 285 286 220 282 291 295 288 284 306 315 343 318 266 295 167 166 160 161 157
316 306 298 294 294 289 282 281 277 277 276 284 289 295 298 297 289 295 295 293 303 316 318 294 295 287 314 321 325 342 300 127 290 177 157 158 157 158
318 307 303 298 297 295 296 291 285 276 273 273 287 290 278 281 292 295 288 301 300 336 312 285 257 332 326 311 338 332 289 102 210 159 154 157 153 154
316 311 304 304 303 305 312 298 287 291 273 270 272 275 278 284 287 284 302 320 301 329 311 295 306 286 298 350 352 315 229 85 241 175 159 149 144 144
320 313 314 317 307 308 304 302 299 293 288 273 271 269 275 288 297 316 301 305 298 334 284 294 310 340 359 352 330 292 118 120 174 158 164 142 142 144
323 319 324 315 317 309 304 292 279 288 286 280 272 286 284 271 276 290 312 321 318 78 315 329 343 355 340 357 309 314 123 147 158 156 149 145 145 145
326 326 324 320 317 322 313 302 277 259 245 267 270 270 284 280 280 298 316 294 312 358 318 330 328 5 347 297 349 30 89 100 139 149 150 149 145 145
333 333 330 324 328 327 318 305 297 283 250 227 243 258 270 271 281 297 305 302 281 247 269 325 357 354 286 4 6 67 88 93 111 148 150 147 147 147
340 339 338 331 335 332 319 314 308 296 248 238 251 256 250 263 274 304 272 285 283 119 357 272 17 271 298 340 4 74 54 63 68 149 143 144 146 146
340 338 344 347 338 339 331 324 321 329 314 288 220 232 234 238 245 249 278 284 309 201 57 332 324 292 29 342 21 31 75 63 73 127 141 140 141 152
339 340 340 343 342 345 344 342 325 308 287 264 153 163 171 208 214 206 250 290 315 19 30 301 359 349 32 75 24 34 41 35 61 110 131 141 142 150
343 341 339 342 347 348 352 345 339 331 347 100 110 118 146 167 199 222 231 264 318 331 328 316 31 7 27 73 54 4 42 44 64 112 128 110 110 114
347 342 347 348 352 357 353 353 360 3 4 36 70 66 50 83 109 107 84 6 30 5 334 341 26 18 45 56 90 17 69 28 39 117 99 102 118 129
344 344 346 350 1 359 1 4 7 1 9 29 49 55 65 67 65 78 70 25 36 47 39 29 40 49 64 57 88 68 37 92 12 51 91 72 62 54
338 351 3 5 5 6 6 7 10 9 14 18 35 50 53 55 50 46 46 58 61 53 53 51 73 76 59 43 67 57 73 80 47 27 93 90 55 44
5 6 7 6 6 3 3 2 9 10 10 20 31 32 34 47 65 56 49 52 74 69 58 26 26 106 100 66 42 36 57 60 28 30 31 100 78 32
16 11 7 5 3 4 3 4 7 2 2 26 29 29 31 39 43 49 46 37 56 54 46 8 350 98 108 87 11 22 61 34 22 30 29 60 98 45
15 11 6 4 4 2 4 3 8 9 13 15 25 24 27 34 38 40 41 50 56 51 50 38 32 51 77 83 103 40 36 63 74 92 93 92 95 106
8 9 6 6 3 2 1 358 7 13 12 18 20 27 26 34 40 40 52 50 61 57 62 54 41 71 110 93 70 56 48 51 53 47 84 85 87 56
6 4 6 7 5 2 359 357 3 10 12 21 25 23 26 33 42 40 39 54 59 61 66 55 45 55 70 88 93 88 70 58 52 53 39 39 147 149
6 3 4 5 5 3 3 360 3 6 6 7 15 21 17 29 33 39 44 52 64 70 71 74 68 65 70 79 94 91 81 64 63 65 51 51 80 90